Tracking 17147 objects as of 4-July-2015
HD Live streaming from Space Station

SL-3 R/B

Track SL-3 R/B now!
10-day predictions
SL-3 R/B is classified as:


NORAD ID: 8027
Int'l Code: 1975-064B
Perigee: 837.2 km
Apogee: 914.6 km
Inclination: 81.3 °
Period: 102.3 minutes
Semi major axis: 7246 km
RCS: 6.004 m2 (large)
Launch date: July 11, 1975
Source: Commonwealth of Independent States (former USSR) (CIS)

Note: This is a ROCKET BODY
Your satellite tracking list
Your tracking list is empty





NASA's NSSDC Master Catalog

Two Line Element Set (TLE):
1 08027U 75064B   15184.86702165  .00000126  00000-0  66227-4 0  9999
2 08027 081.2969 023.6327 0053449 122.1901 238.4468 14.07263977 52017

Source of the keplerian elements: AFSPC

N2YO: 277